Location: Culleoka
(33.1312°N, 96.4919°W)
Time: 22:43:57
(UTC+00:00)

Okean 1 - Pass Details

Date: 06 July 2022
Orbit: 532 x 553 km, 82.5° (Epoch: 07 August)

Event Time Altitude Azimuth Distance (km) Brightness Sun altitude
Rises 10:15:23 0° 334° (NNW) 2,682 7.0 -12.7°
Reaches altitude 10° 10:18:02 10° 316° (NW) 1,785 5.9 -12.3°
Maximum altitude 10:20:46 19° 271° (W) 1,324 4.8 -11.8°
Enters shadow 10:21:56 16° 248° (WSW) 1,415 4.8 -11.6°
